Location: Warner Observatory
(35.1353°N, 89.5455°W)
Time: 08:38:17
(UTC-06:00)

Envisat - Pass Details

Date: 29 January 2020
Orbit: 764 x 766 km, 98.1° (Epoch: 28 February)

Event Time Altitude Azimuth Distance (km) Brightness Sun altitude
Rises 18:57:20 0° 204° (SSW) 3,217 6.7 -19.4°
Reaches altitude 10° 19:00:16 10° 221° (SW) 2,296 6.1 -20.0°
Maximum altitude 19:03:49 19° 266° (W) 1,760 5.8 -20.7°
Drops below altitude 10° 19:07:22 10° 311° (NW) 2,306 6.0 -21.4°
Sets 19:10:21 0° 329° (NNW) 3,237 6.6 -22.0°
